Retour au catalogue

STARLINK-5344

ActifCommunicationsVLEO
NORAD 55494·PAYLOAD·🇺🇸 United States

Lancé Feb 2, 2023 depuis Cape Canaveral Space Force Station

Loading…

Prochains Passages (prochaines 24 heures)

TLE

FraisSource: CelesTrak SupGP

Époque: Sep 15, 2026, 02:35 UTC

1 55494C 23015AX  26258.10812500  .00022509  00000+0  81532-3 0  2585
2 55494  43.0038 350.0911 0001812 271.5335  72.7418 15.27564958    16

Suivez STARLINK-5344 en temps réel avec AllMySat

Download on the App Store